Regional Weather Roundup
Issued by NWS Burlington, VT

Home | Current Version | Previous Version | Text Only | Print | Product List | Glossary On
Versions: 1 2 3 4 5 6 7 8 9 10 11 12 13 14 15 16 17 18 19 20 21 22 23 24 25 26 27 28 29 30 31 32 33 34 35 36 37 38 39 40 41 42 43 44 45 46 47 48 49 50
000
ASUS41 KBTV 251130
RWRBTV
VERMONT REGIONAL WEATHER ROUNDUP
NATIONAL WEATHER SERVICE BURLINGTON VT
700 AM EDT FRI JUL 25 2014

NOTE: "FAIR" INDICATES FEW OR NO CLOUDS BELOW 12,000 FEET WITH NO
SIGNIFICANT WEATHER AND/OR OBSTRUCTIONS TO VISIBILITY.

* THESE REPORTS ARE NOT UNDER NWS QUALITY CONTROL AND/OR DO NOT
  REPORT WEATHER SUCH AS PRECIPITATION AND FOG.

VTZ001>019-251200-
_____VERMONT_____


CITY           SKY/WX    TMP DP  RH WIND       PRES   REMARKS
BURLINGTON     PTSUNNY   57  52  83 CALM      29.97R
MONTPELIER     MOSUNNY   49  49 100 CALM      30.02S
MORRISVILLE    FOG      N/A N/A N/A CALM      30.00R VSB 1/4
ST. JOHNSBURY*   N/A     49  49 100 MISG      29.97S
LYNDONVILLE*   FOG       48  46  91 CALM      30.00S VSB<1/4
MIDDLEBURY*    FAIR      56  56 100 CALM      29.98R
RUTLAND*       SUNNY     52  48  87 SE7       30.01S
SPRINGFIELD    FOG       50  50 100 CALM      30.01R VSB 3/4
HIGHGATE*      FAIR      60  53  76 S5        29.95R
NEWPORT*       FAIR     N/A N/A N/A SW3       29.97S
BENNINGTON     SUNNY     52  51  97 CALM      30.01S
SUTTON*          N/A     50 N/A N/A MISG        N/A
GALLUP MILLS*    N/A     34 N/A N/A MISG        N/A
UNION VILLAGE*   N/A     50 N/A N/A MISG        N/A
MT. MANSFIELD*   N/A     48 N/A N/A NW10        N/A

_____LAKE CHAMPLAIN_____


CITY           SKY/WX    TMP DP  RH WIND       PRES   REMARKS
COLCHESTER RF*   N/A     63  57  82 S18         N/A
DIAMOND ISL*     N/A     59  54  82 S5          N/A

$$

NYZ007-026>031-035-052-083-251200-
_____NORTHERN NEW YORK_____


CITY           SKY/WX    TMP DP  RH WIND       PRES   REMARKS
PLATTSBURGH    SUNNY     58  55  90 CALM      29.95R
SARANAC LAKE   MOSUNNY   45  43  93 SW3       29.99S
MASSENA        PTSUNNY   58  56  93 SW10      29.97R
OGDENSBURG*    SUNNY     59  57  94 S3        29.99R
POTSDAM*       MOSUNNY   57  57 100 SW5       29.99R
PARISHVILLE*     N/A     59 N/A N/A S3          N/A
WATERTOWN      SUNNY     59  53  80 S5        30.00R
FT DRUM        SUNNY     55  55  99 S6        30.00R
ALBANY         SUNNY     57  51  80 CALM      30.02R
GLENS FALLS    SUNNY     56  53  90 CALM      30.00R

$$
NHZ002-005-011-251200-
_____NEW HAMPSHIRE_____


CITY           SKY/WX    TMP DP  RH WIND       PRES   REMARKS
LEBANON        FOG       51  49  92 CALM      29.99S VSB 1
KEENE          CLOUDY    52  45  76 CALM      30.00F
MT WASHINGTON  FOG       41  41 100 NW43        N/A  VSB 0
PLYMOUTH       FAIR      52  51  95 CALM      29.98S
WHITEFIELD     PTSUNNY   50  49  96 CALM      29.99S FOG

$$

_____REGIONAL QUEBEC LOCATIONS_____


CITY           SKY/WX    TMP DP  RH WIND       PRES   REMARKS
MONTREAL       PTSUNNY   61  55  82 SW10      29.93R
QUEBEC CITY    MOSUNNY   59  55  88 W5        29.88S
SHERBROOKE     SUNNY     54  52  94 CALM      29.94R

_____REGIONAL ONTARIO LOCATIONS_____


CITY           SKY/WX    TMP DP  RH WIND       PRES   REMARKS
OTTAWA         PTSUNNY   57  54  88 W5        29.96R

______KEY______
VSB  - VISIBILITY IN MILES
WCI  - WIND CHILL INDEX
HX   - HEAT INDEX
$$



USA.gov is the U.S. government's official web portal to all federal, state and local government web resources and services.